Back to catalog

LANDSAT 3

AliveScienceSSO
NORAD 10702·PAYLOAD·🇺🇸 United States

Launched Mar 5, 1978 from Vandenberg Space Force Base

Loading…

Next Passes (next 24 hours)

TLE

FreshSource: Space-Track

Epoch: Sep 14, 2026, 08:14 UTC

1 10702U 78026A   26257.34342731  .00000195  00000-0  17126-3 0  9997
2 10702  99.0779 211.3595 0013527 260.4676 262.0602 13.97006439473923

Track LANDSAT 3 in real time with AllMySat

Download on the App Store